Flag for Austria Weather past 2 weeks in Linz, Upper Austria, Austria

Now
54 °F

Partly cloudy.


Feels Like: 54 °F
Forecast: 51 / 62 °F
Wind: 2 mph from Southwest

Location: Linz / Hoersching-Flughafen

Current Time: May 25, 2015 at 10:52:22 PM

Latest Report: May 25, 2015 at 9:50 PM


Visibility: N/A

Pressure: 29.89 "Hg

Humidity: 88%

Dew point: 50 °F

Location of LinzLocation

Historic Weather in Linz — Graph

°F

Linz temperature yesterday

Maximum temperature yesterday: 54 °F (at 12:20 PM)
Minimum temperature yesterday: 48 °F (at 5:20 AM)
Average temperature yesterday: 51 °F

Past Weeks' High & Low Weather Summary

 TemperatureHumidityPressure
High77 °F (May 12, 4:20 PM)100% (May 14, 4:50 AM)30.39 "Hg (May 14, 4:50 AM)
Low45 °F (May 11, 4:20 AM)27% (May 11, 2:50 PM)29.71 "Hg (May 19, 3:50 AM)
Average57 °F78%30.05 "Hg
* Reported May 10 9:20 PM — May 25 9:50 PM, Linz, Weather by CustomWeather, © 2015

Note: Actual official high and low records may vary slightly from our data, if they occured in-between our weather recording intervals... More about our weather records

Advertising

Linz weather history for previous 24 hours

 ConditionsComfort  
Time TempWeatherWind HumidityBarometerVisibility
9:50 PM
Mon, May 25
54 °FPartly cloudy.2 mph88%29.89 "HgN/A
9:20 PM55 °FBroken clouds.3 mph82%29.86 "HgN/A
8:50 PM55 °FBroken clouds.5 mph82%29.86 "HgN/A
8:20 PM57 °FBroken clouds.5 mph77%29.86 "HgN/A
7:50 PM57 °FPartly sunny.6 mph77%29.86 "HgN/A
7:20 PM57 °FPartly sunny.3 mph82%29.86 "HgN/A
6:50 PM57 °FPartly sunny.7 mph77%29.86 "HgN/A
6:20 PM59 °FPartly sunny.8 mph72%29.86 "HgN/A
5:50 PM59 °FSprinkles. Broken clouds.15 mph68%29.86 "HgN/A
5:20 PM59 °FBroken clouds.13 mph68%29.89 "HgN/A
4:50 PM66 °FBroken clouds.8 mph56%29.86 "HgN/A
4:20 PM66 °FBroken clouds.8 mph56%29.89 "HgN/A
3:50 PM66 °FBroken clouds.7 mph56%29.89 "HgN/A
3:20 PM64 °FPartly sunny.8 mph64%29.89 "HgN/A
2:50 PM63 °FPartly sunny.7 mph64%29.92 "HgN/A
2:20 PM64 °FBroken clouds.6 mph64%29.92 "HgN/A
1:50 PM64 °FBroken clouds.5 mph64%29.92 "HgN/A
1:20 PM63 °FBroken clouds.6 mph73%29.95 "HgN/A
12:50 PM63 °FBroken clouds.7 mph73%29.95 "HgN/A
12:20 PM61 °FBroken clouds.7 mph72%29.95 "HgN/A
11:50 AM59 °FPartly sunny.8 mph77%29.98 "HgN/A
11:20 AM59 °FPartly sunny.8 mph77%29.98 "HgN/A
10:50 AM57 °FPartly sunny.7 mph82%29.98 "HgN/A
10:20 AM55 °FBroken clouds.7 mph88%30.01 "HgN/A
9:50 AM55 °FPartly sunny.8 mph88%30.01 "HgN/A
9:20 AM55 °FPartly sunny.7 mph88%30.01 "HgN/A
8:50 AM55 °FBroken clouds.7 mph88%30.01 "Hg6 mi
8:20 AM54 °FBroken clouds.7 mph94%30.01 "HgN/A
7:50 AM54 °FBroken clouds.7 mph94%30.01 "HgN/A
7:20 AM54 °FFog.5 mph94%30.01 "HgN/A
6:50 AM52 °FFog.3 mph94%30.01 "Hg5 mi
6:20 AM52 °FFog.6 mph94%30.01 "Hg4 mi
5:50 AM50 °FFog.5 mph100%30.01 "Hg3 mi
5:20 AM52 °FFog.5 mph94%30.01 "Hg2 mi
4:50 AM52 °FPartly cloudy.6 mph94%30.01 "Hg4 mi
4:20 AM52 °FPartly cloudy.6 mph94%30.01 "Hg4 mi
3:50 AM52 °FPartly cloudy.5 mph94%30.04 "Hg4 mi
3:20 AM52 °FPartly cloudy.3 mph94%30.04 "Hg4 mi
2:50 AM52 °FPassing clouds.5 mph94%30.04 "Hg4 mi
2:20 AM52 °FPassing clouds.5 mph94%30.04 "Hg4 mi
1:50 AM52 °FPassing clouds.3 mph94%30.07 "Hg4 mi
1:20 AM52 °FOvercast.6 mph94%30.07 "Hg4 mi
12:50 AM52 °FPassing clouds.6 mph94%30.07 "Hg4 mi
12:20 AM52 °FPassing clouds.5 mph94%30.07 "Hg4 mi
11:50 PM
Sun, May 24
52 °FPassing clouds.5 mph94%30.07 "Hg4 mi
11:20 PM52 °FPartly cloudy.5 mph94%30.07 "Hg4 mi
10:50 PM52 °FPassing clouds.3 mph94%30.07 "Hg6 mi
10:20 PM52 °FPartly cloudy.3 mph94%30.07 "Hg6 mi
Weather by CustomWeather, © 2015

See weather overviewHow to use our weather pages